Weather History for K9V9 - March, 2013

Change the Weather History Date:

Saturday, March 16, 2013

  Actual Average Record
Temperature  
Mean Temperature 24 °F -  
Max Temperature 30 °F 40 °F 84 °F (2012)
Min Temperature 17 °F 21 °F 10 °F (2002)
Degree Days  
Heating Degree Days 42    
Moisture  
Dew Point 14 °F    
Average Humidity 69    
Maximum Humidity 81    
Minimum Humidity 54    
Precipitation  
Precipitation 0.00 in - - ()
Sea Level Pressure  
Sea Level Pressure 30.21 in    
Wind  
Wind Speed 11 mph (NNE)    
Max Wind Speed 17 mph    
Max Gust Speed 22 mph    
Averages and records for this station are not official NWS values.
T = Trace of Precipitation, MM = Missing Value Source: NWS Daily Summary

Daily Weather History Graph

Daily Weather History Graph

Search for Another Location

Airport or City:

Trip Planner

Search our weather history database for the weather conditions in past years. The results will help you decide how hot, cold, wet, or windy it might be!

Date:

Astronomy

Mar. 16, 2013 Rise Set
Actual Time 7:47 AM CDT 7:45 PM CDT
Civil Twilight 7:18 AM CDT 8:13 PM CDT
Nautical Twilight 6:45 AM CDT 8:47 PM CDT
Astronomical Twilight 6:11 AM CDT 9:21 PM CDT
Moon 10:08 AM CDT (3/16) 12:08 AM CDT (3/16)
Length of Visible Light 12h 55m
Length of Day
11h 57m
Waxing Crescent, 23% of the Moon is Illuminated
Mar 16
Waxing Crescent
Mar 19
First Quarter
Mar 27
Full
Apr 2
Last Quarter
Apr 10
New

Hourly Weather History & Observations

Time (CDT) Temp. Windchill Dew Point Humidity Pressure Visibility Wind Dir Wind Speed Gust Speed Precip Events Conditions
12:52 AM 26.1 °F 15.0 °F 21.0 °F 81% 30.11 in - NNW 12.7 mph - N/A   Unknown
1:52 AM 24.1 °F 12.0 °F 19.0 °F 81% 30.13 in - NNW 13.8 mph 19.6 mph N/A   Unknown
2:52 AM 24.1 °F 10.6 °F 18.0 °F 77% 30.16 in - North 17.3 mph - N/A   Unknown
3:52 AM 23.0 °F 10.1 °F 16.0 °F 74% 30.18 in - NNW 15.0 mph 21.9 mph N/A   Unknown
4:52 AM 21.9 °F 8.7 °F 15.1 °F 75% 30.20 in - North 15.0 mph 21.9 mph N/A   Unknown
5:52 AM 19.0 °F 5.6 °F 12.9 °F 77% 30.21 in - North 13.8 mph - N/A   Unknown
6:52 AM 18.0 °F 7.7 °F 12.0 °F 78% 30.23 in - North 8.1 mph - N/A   Unknown
7:52 AM 17.1 °F 3.6 °F 10.9 °F 77% 30.25 in - NNE 12.7 mph - N/A   Unknown
8:52 AM 19.0 °F 6.8 °F 12.0 °F 74% 30.24 in - NNE 11.5 mph - N/A   Unknown
9:52 AM 19.9 °F 11.1 °F 12.0 °F 71% 30.25 in - North 6.9 mph - N/A   Unknown
10:52 AM 21.0 °F 11.4 °F 10.9 °F 65% 30.26 in - North 8.1 mph - N/A   Unknown
11:52 AM 24.1 °F 17.0 °F 12.0 °F 60% 30.25 in - NNE 5.8 mph - N/A   Unknown
12:52 PM 26.1 °F 21.9 °F 12.0 °F 55% 30.24 in - North 3.5 mph - N/A   Unknown
1:52 PM 27.0 °F - 14.0 °F 58% 30.21 in - Calm Calm - N/A   Unknown
2:52 PM 28.9 °F - 14.0 °F 54% 30.20 in - Calm Calm - N/A   Unknown
3:52 PM 30.0 °F 24.1 °F 15.1 °F 54% 30.16 in - Variable 5.8 mph - N/A   Unknown
4:52 PM 28.0 °F 20.8 °F 15.1 °F 58% 30.17 in - NE 6.9 mph - N/A   Unknown
5:52 PM 27.0 °F 19.5 °F 15.1 °F 61% 30.19 in - East 6.9 mph - N/A   Unknown
6:52 PM 26.1 °F 16.2 °F 17.1 °F 69% 30.22 in - East 10.4 mph - N/A   Unknown
7:52 PM 24.1 °F 12.5 °F 16.0 °F 71% 30.22 in - East 12.7 mph - N/A   Unknown
8:52 PM 21.9 °F 8.7 °F 15.1 °F 75% 30.21 in - East 15.0 mph 20.7 mph N/A   Unknown
9:52 PM 21.0 °F 8.6 °F 14.0 °F 74% 30.24 in - East 12.7 mph - N/A   Unknown
10:52 PM 19.9 °F 5.2 °F 12.9 °F 74% 30.22 in - East 17.3 mph - N/A   Unknown
11:52 PM 19.0 °F 4.5 °F 12.0 °F 74% 30.22 in - East 16.1 mph - N/A   Unknown